Regional Weather Roundup
Issued by NWS

Home | Current Version | Previous Version | Graphics & Text | Print | Product List | Glossary On
Versions: 1 2 3 4 5 6 7 8 9 10 11 12 13 14 15 16 17 18 19 20 21 22 23 24 25 26 27 28 29 30 31 32 33 34 35 36 37 38 39 40 41 42 43 44 45 46 47 48 49 50
000
ASUS43 KLMK 161802
RWRKY
KENTUCKY REGIONAL WEATHER ROUNDUP
NATIONAL WEATHER SERVICE LOUISVILLE KY
200 PM EDT WED AUG 16 2017

NOTE "FAIR" INDICATES FEW OR NO CLOUDS BELOW 12,000 FEET
WITH NO SIGNIFICANT WEATHER AND/OR OBSTRUCTIONS TO VISIBILITY.

KYZ001>023-026-027-061>063-070>075-161900-
WESTERN AND SOUTH CENTRAL KENTUCKY

CITY           SKY/WX    TMP DP  RH WIND       PRES   REMARKS
PADUCAH        CLOUDY    88  76  67 VRB6      29.97F HX  99
HENDERSON      CLOUDY    84  76  76 SE3       30.00S HX  93
OWENSBORO      CLOUDY    87  76  69 S6        30.00F HX  97
HOPKINSVILLE   MOSUNNY   90  75  62 SW12      30.01F HX 100
BOWLING GREEN  CLOUDY    83  74  74 S9        30.03F
GLASGOW        CLOUDY    87  74  64 SW3       30.04S HX  95
$$

KYZ024-025-028>034-038-045-046-053-161900-
NORTH CENTRAL KENTUCKY

CITY           SKY/WX    TMP DP  RH WIND       PRES   REMARKS
LOUISVILLE/SDF PTSUNNY   91  70  49 S8        30.00F HX  96
LOUISVILLE/LOU PTSUNNY   89  71  55 SW7       30.01F HX  95
FORT KNOX      NOT AVBL
$$

KYZ035>037-039>044-047>052-055>060-089>105-161900-
NORTHEAST KENTUCKY

CITY           SKY/WX    TMP DP  RH WIND       PRES   REMARKS
LEXINGTON      CLOUDY    82  73  74 S7        30.06F
COVINGTON      PTSUNNY   88  71  57 SW3       30.02F HX  94
FRANKFORT      CLOUDY    84  70  62 SE8       30.03F
$$

KYZ054-064>069-076>088-106>120-161900-
SOUTHEAST KENTUCKY

CITY           SKY/WX    TMP DP  RH WIND       PRES   REMARKS
JACKSON        CLOUDY    80  74  81 VRB3      30.08F
LONDON         CLOUDY    83  71  67 SE5       30.06F
SOMERSET       NOT AVBL
MIDDLESBORO    PTSUNNY   86  71  62 SW5       30.08F HX  91
MONTICELLO     MOCLDY    84  75  74 W13       30.08F HX  92
$$





USA.gov is the U.S. government's official web portal to all federal, state and local government web resources and services.